ARIANE 44P R/B, 26488

Orbit data source: Space-Track

ARIANE 44P R/B, 26488 is space debris in HEO originally from a launch on Wed, 06 Sep 2000 UTC launched from the French Guiana (FRGUI). Debris objects in space refer to the collection of defunct objects orbiting the Earth. Examples of debris include non-operational satellites, rocket bodies, and fragments generated from explosions, collisions, or faulty payload assembly.

Loading next visibility...
ARIANE 44P R/B details
Identifier
26488, 2000-052B
Orbit
HEO
Last TLE update18 hours ago
Origin
Flag of FRArianespace (FR)
ManufacturerEADS/LV
MissionSpacecraft
Bus & MotorARIANE H10-3, HM-7B
Mass1,820 kg wet, 1,820 kg dry
Launch date (UTC)
2000-09-06 (24 years ago)
Launch vehicleUnknown
Launch site
French Guiana (FRGUI)
Object type
Payload
Rocket body
Debris
Shape & HBRCyl, 12.1 m
Radar Cross Section27.363 m², Large (>1 m²)

Expand to show TLE details & history

TLE from 18 hours ago
0 ARIANE 44P R/B
1 26488U 00052B   24360.79828468  .00000376  00000-0  86730-3 0  9995
2 26488   6.8963 177.1029 7178130 345.4152   1.6285  2.33543590201021
Epoch: 2024-12-25T19:09Z
Definitive object data (Epoch: 2024-12-25T19:09:31.796Z)
Latitude0.00034°
Longitude155.02835°
Altitude505.609 km
Speed9.959 km/s
True Right ascension11h 48m 47s
True Declination0° 00' 01"
Sunlit
Object was in daylight at TLE epoch
Visualization TLE readout
Latitude-1.34115°
Longitude-14.05037°
Altitude26,720.102 km
Speed2.734 km/s
Apparent Right ascension00h 32m 26s
Apparent Declination-7° 16' 03"
Sunlit
Object is in daylight
Visualization observer readout
Local Sidereal Time12:32:15
Azimuth359.91° N
Elevation-57.351°
Doppler factor1
Orbital elements
Apogee altitude34,853.349 km
Perigee altitude395.004 km
Semi-major axis24,002.313 km
Eccentricity0.717813
Inclination6.8963°
RAAN177.1029°
Arg. of periapsis345.4152°
True anomaly14.11828°
Mean anomaly1.6285°
Eccentric anomaly5.7465°
Mean motion0.58366 °/min
BSTAR0.0008673
Orbital period616.79 mins
Loading maneuver chart data...
Loading historical data...
Loading historical data...
Loading historical data...
Loading historical data...
Loading historical data...
Loading historical data...
Loading historical data...
Other satellites on launch #52 in the year 2000 (2000-09-06 UTC)

ARIANE 44P R/B Visibility forecast

Observer location: undefined°, undefined

Span
Click to sort rows by Start time (UTC) header in descending order
Start Az.
Max El. time (UTC)
Max El. Az.
Max El.
End time (UTC)
End Az.
552 mins2024-12-26 15:55:37.045Z181.717° SSW2024-12-26 22:51:37.045Z141.03° SSE29.163°2024-12-27 01:07:37.045Z132.066° SE
|